Simultaneous Nadir Overpasses (SNOs) Predictions

Prediction of SNOs between METOP-A and TERRA Satellite Orbit:

Table of predicted SNOs for the next 14.0 days since TLE Epoch: 2/3/2018
Index Date (METOP-A) Time (METOP-A) Lat,Lon (METOP-A) SZA (METOP-A ) Date (TERRA) Time (TERRA) Lat,Lon (TERRA) SZA (TERRA ) Distance(km) Time Diff (sec)
1 02/05/2018 11:49:24 81.39, 51.67 99.71 02/05/2018 11:49:50 81.39, 51.65 99.72 0.44 26
2 02/05/2018 12:40:04 -81.39,-140.80 80.29 02/05/2018 12:39:17 -81.39,-140.79 80.31 0.30 47
3 02/08/2018 07:23:43 81.39, 117.87 98.81 02/08/2018 07:24:06 81.39, 117.95 98.82 1.23 23
4 02/08/2018 08:14:23 -81.39, -74.58 81.19 02/08/2018 08:13:33 -81.38, -74.46 81.20 2.20 50
5 02/11/2018 02:58:00 81.39,-175.54 97.92 02/11/2018 02:58:21 81.38,-175.73 97.90 3.32 21
6 02/11/2018 03:48:39 -81.39, -7.59 82.03 02/11/2018 03:47:47 -81.40, -7.72 82.06 2.14 52
7 02/13/2018 22:32:18 81.39,-108.98 97.00 02/13/2018 22:32:36 81.40,-108.99 97.01 0.53 18
8 02/13/2018 23:22:58 -81.39, 58.58 82.99 02/13/2018 23:22:03 -81.40, 58.66 83.00 1.41 55
9 02/16/2018 18:06:36 81.39, -42.43 96.06 02/16/2018 18:06:52 81.39, -42.61 96.04 2.98 16




NCC Satellite Simultaneous Nadir Overpasses (SNOs) Prediction Service
